Location: Chatou
(48.8898°N, 2.1586°E)
Time: 02:57:47
(UTC+00:00)

UNISAT 6 - Pass Details

Date: 12 December 2023
Orbit: 596 x 671 km, 97.7° (Epoch: 22 February)

Event Time Altitude Azimuth Distance (km) Brightness Sun altitude
Exits shadow 18:02:13 - 3° (N) 2,851 ? -19.9°
Reaches altitude 10° 18:04:27 10° 352° (N) 2,022 ? -20.3°
Maximum altitude 18:08:07 27° 296° (WNW) 1,218 ? -20.9°
Drops below altitude 10° 18:11:42 10° 239° (WSW) 1,972 ? -21.4°
Sets 18:14:06 0° 227° (SW) 2,860 ? -21.8°
